Hurricane Symbol View the latest observations near East Pacific Tropical Storm Bud.

Station NMTA2 - 9468756 - Nome, Norton Sound, AK Image indicating link to RSS feed of recent meteorological observations for station NMTA2


Conditions at NMTA2 as of
(3:54 am AKDT)
1154 GMT on 07/25/2024:
     

Click on the graph icon in the table below to see a time series plot of the last five days of that observation.

5-day plot - Wind Direction Wind Direction (WDIR): W ( 270 deg true )
5-day plot - Wind Speed Wind Speed (WSPD): 2.9 kts
5-day plot - Wind Gust Wind Gust (GST): 4.1 kts
5-day plot - Atmospheric Pressure Atmospheric Pressure (PRES):29.87 in
5-day plot - Air Temperature Air Temperature (ATMP): 59.9 °F
5-day plot - Water Temperature Water Temperature (WTMP): 57.9 °F
5-day plot - Wind Speed at 10 Meters Wind Speed at 10 meters (WSPD10M): 3.9 kts
5-day plot - Wind Speed at 20 Meters Wind Speed at 20 meters (WSPD20M): 3.9 kts
5-day plot -  Wind Speed, Wind Gust and Atmospheric Pressure Combined plot of Wind Speed, Gust, and Air Pressure
NOS Water Level Observation Network Water Level
Previous observations
TIME
(AKDT)
5-day plot - Wind Direction
WDIR
 
5-day plot - Wind Speed
WSPD
kts
5-day plot - Wind Gust
GST
kts
5-day plot - Wave Height
WVHT
ft
5-day plot - Dominant Wave Period
DPD
sec
5-day plot - Average Wave Period
APD
sec
5-day plot - Mean Wave Direction
MWD
 
5-day plot - Atmospheric Pressure
PRES
in
5-day plot - Pressure Tendency
PTDY
in
5-day plot - Air Temperature
ATMP
°F
5-day plot - Water Temperature
WTMP
°F
5-day plot - Dew Point
DEWP
°F
5-day plot - Salinity
SAL
psu
5-day plot - Visibility
VIS
nmi
5-day plot - Tide (above MLLW)
TIDE
ft
2024-07-25 03:48 am W 4.1 5.1----29.87-- 57.7----
2024-07-25 03:42 amWNW 4.1 5.1----29.86-- 57.9----
2024-07-25 03:36 am NW 5.1 6.0----29.86-- 57.7----
2024-07-25 03:30 am NW 5.1 8.9----29.86- 60.1 57.7----
2024-07-25 03:24 amWNW 8.9 11.1----29.86- 60.6 58.1----
2024-07-25 03:18 amWNW 11.1 13.0----29.86- 60.8 58.3----
2024-07-25 03:12 am W 11.1 12.0----29.86- 61.0 57.7----
2024-07-25 03:06 am W 11.1 12.0----29.87- 61.0 58.3----
2024-07-25 03:00 am W 9.9 12.0----29.87+0.00 61.2 59.0----
2024-07-25 02:54 am W 12.0 13.0----29.87- 61.2 58.5----
2024-07-25 02:48 am W 11.1 13.0----29.87- 61.2 57.9----
2024-07-25 02:42 am W 12.0 13.0----29.88- 61.5 58.1----
2024-07-25 02:36 am W 11.1 13.0----29.88- 61.3 59.4----
2024-07-25 02:30 am W 9.9 12.0----29.88- 61.5 58.3----
2024-07-25 02:24 am W 11.1 12.0----29.88- 61.3 57.6----
2024-07-25 02:18 am W 11.1 13.0----29.88- 61.9 58.5----
2024-07-25 02:12 amWSW 12.0 13.0----29.88- 61.9 58.1----
2024-07-25 02:06 amWSW 11.1 12.0----29.89- 61.9 58.1----
2024-07-25 02:00 amWSW 11.1 12.0----29.88+0.00 61.7 58.1----
2024-07-25 01:54 amWSW 8.9 9.9----29.88- 62.4 58.1----
2024-07-25 01:48 amWSW 8.9 11.1----29.88-- 58.1----
2024-07-25 01:42 am W 8.9 11.1----29.88-- 57.9----
2024-07-25 01:36 am W 8.9 9.9----29.88-- 58.1----
2024-07-25 01:30 am W 6.0 8.0----29.88- 62.8 57.9----
2024-07-25 01:24 am W 7.0 8.0----29.88- 62.6 57.9----
2024-07-25 01:18 am W 5.1 6.0----29.88-- 57.9----
2024-07-25 01:12 am W 5.1 6.0----29.88- 63.0 57.9----
2024-07-25 01:06 am W 5.1 6.0----29.88- 63.0 57.9----
2024-07-25 01:00 am W 6.0 7.0----29.88-0.01 62.8 57.9----
2024-07-25 12:54 am W 6.0 7.0----29.88- 62.6 57.9----
2024-07-25 12:48 amWSW 5.1 6.0----29.89-- 58.1----
2024-07-25 12:42 am W 4.1 5.1----29.88-- 58.1----
2024-07-25 12:36 am W 4.1 5.1----29.88-- 57.7----
2024-07-25 12:30 am W 4.1 5.1----29.88- 62.1 57.7----
2024-07-25 12:24 am W 5.1 5.1----29.88- 62.2 57.9----
2024-07-25 12:18 am W 5.1 5.1----29.88- 62.1 57.9----
2024-07-25 12:12 am W 5.1 5.1----29.88- 62.4 57.7----
2024-07-25 12:06 am W 4.1 5.1----29.88- 63.0 57.9----
2024-07-25 12:00 am W 2.9 4.1----29.88-0.02 62.6 57.9----
2024-07-24 11:54 pm W 2.9 4.1----29.88- 63.0 57.7----
2024-07-24 11:48 pm W 2.9 2.9----29.88-- 57.9----
2024-07-24 11:42 pm W 2.9 2.9----29.88-- 57.9----
2024-07-24 11:36 pmWSW 2.9 4.1----29.88-- 57.7----
2024-07-24 11:30 pm W 2.9 2.9----29.88- 64.6 57.9----
2024-07-24 11:24 pm W 1.9 2.9----29.88- 64.2 57.7----
2024-07-24 11:18 pm W 1.9 2.9----29.88- 64.0 57.6----
2024-07-24 11:12 pm W 2.9 4.1----29.88- 63.7 57.4----
2024-07-24 11:06 pm W 4.1 4.1----29.88- 63.9 57.2----
2024-07-24 11:00 pm W 4.1 4.1----29.88-0.02 64.0 57.4----
2024-07-24 10:54 pm W 4.1 4.1----29.88- 64.9 57.2----
2024-07-24 10:48 pm W 2.9 4.1----29.88- 66.0 57.4----
2024-07-24 10:42 pm W 1.9 2.9----29.88- 65.8 57.6----
2024-07-24 10:36 pmWNW 2.9 4.1----29.88- 65.1 57.4----
2024-07-24 10:30 pm NW 4.1 4.1----29.88- 64.8 57.7----
2024-07-24 10:24 pm NW 2.9 2.9----29.88- 66.0 57.6----
2024-07-24 10:18 pmWNW 1.0 2.9----29.89- 66.4 57.6----
2024-07-24 10:12 pm W 2.9 2.9----29.89- 65.1 57.4----
2024-07-24 10:06 pm W 2.9 2.9----29.89- 64.6 57.7----
2024-07-24 10:00 pm W 2.9 4.1----29.89-0.03 65.5 58.3----
2024-07-24 09:54 pmWSW 4.1 4.1----29.89- 66.6 57.6----
2024-07-24 09:48 pmWSW 4.1 4.1----29.89- 66.0 57.6----
2024-07-24 09:42 pm SW 4.1 5.1----29.89- 65.3 57.0----
2024-07-24 09:36 pm SW 5.1 5.1----29.89- 65.1 57.4----
2024-07-24 09:30 pmWSW 5.1 5.1----29.89- 65.7 57.2----
2024-07-24 09:24 pm SW 5.1 5.1----29.89- 64.9 57.0----
2024-07-24 09:18 pm SW 5.1 5.1----29.90- 64.9 57.2----
2024-07-24 09:12 pmWSW 4.1 4.1----29.90- 65.7 57.2----
2024-07-24 09:06 pmWSW 2.9 4.1----29.90- 66.0 57.0----
2024-07-24 09:00 pmWSW 4.1 4.1----29.90-0.03 67.5 56.8----
2024-07-24 08:54 pmWSW 4.1 4.1----29.90- 67.6 57.2----
2024-07-24 08:48 pmWSW 4.1 4.1----29.90-- 57.0----
2024-07-24 08:42 pmWSW 4.1 4.1----29.90- 67.3 57.0----
2024-07-24 08:36 pm SW 4.1 4.1----29.90- 67.1 57.2----
2024-07-24 08:30 pmWSW 4.1 4.1----29.90- 67.8 56.8----
2024-07-24 08:24 pmWSW 2.9 4.1----29.90- 67.6 56.8----
2024-07-24 08:18 pm W 2.9 4.1----29.90- 66.9 57.2----
2024-07-24 08:12 pm W 2.9 4.1----29.90- 66.4 56.8----
2024-07-24 08:06 pm W 4.1 4.1----29.90- 66.7 57.0----
2024-07-24 08:00 pm W 2.9 2.9----29.90-0.05 66.9 57.0----
2024-07-24 07:54 pm W 2.9 2.9----29.90- 66.4 56.7----
2024-07-24 07:48 pmWNW 1.9 2.9----29.90-- 56.7----
2024-07-24 07:42 pm W 1.9 2.9----29.91-- 56.8----
2024-07-24 07:36 pm W 2.9 2.9----29.91-- 56.7----
2024-07-24 07:30 pmWSW 2.9 4.1----29.91- 66.7 56.8----
2024-07-24 07:24 pmWSW 2.9 2.9----29.91- 66.7 57.0----
2024-07-24 07:18 pm W 2.9 2.9----29.91- 66.7 56.8----
2024-07-24 07:12 pm W 2.9 2.9----29.91- 66.4 56.5----
2024-07-24 07:06 pm W 2.9 2.9----29.91- 66.4 56.7----
2024-07-24 07:00 pmWSW 2.9 2.9----29.92-0.04 66.2 56.3----
2024-07-24 06:54 pm W 2.9 2.9----29.92- 66.6 57.4----
2024-07-24 06:48 pm W 2.9 4.1----29.92-- 57.2----
2024-07-24 06:42 pm W 2.9 4.1----29.92-- 57.2----
2024-07-24 06:36 pm W 4.1 4.1----29.92-- 57.2----
2024-07-24 06:30 pm W 2.9 4.1----29.92- 66.6 57.2----
2024-07-24 06:24 pm W 2.9 2.9----29.92- 66.7 57.4----
2024-07-24 06:18 pm W 2.9 2.9----29.93-------
2024-07-24 06:12 pm W 1.9 2.9----29.93- 66.7 57.2----
2024-07-24 06:06 pm W 1.9 2.9----29.93- 66.6 57.2----
2024-07-24 06:00 pm W 1.9 2.9----29.93-0.03 66.6 56.8----
2024-07-24 05:54 pmWSW 1.9 2.9----29.93- 67.3 56.8----
2024-07-24 05:48 pm SW 1.9 2.9----29.93-- 56.8----
2024-07-24 05:42 pmWSW 1.9 2.9----29.94- 67.3 56.7----
2024-07-24 05:36 pmWSW 2.9 2.9----29.94- 66.6 56.7----
2024-07-24 05:30 pmWSW 1.9 2.9----29.94- 66.4 56.7----
2024-07-24 05:24 pmWSW 1.9 2.9----29.94- 66.2 57.6----
2024-07-24 05:18 pm W 1.9 2.9----29.94-- 56.7----
2024-07-24 05:12 pm W 1.9 2.9----29.94- 65.5 56.3----
2024-07-24 05:06 pm W 1.9 2.9----29.94- 65.1 56.5----
2024-07-24 05:00 pm W 1.9 2.9----29.95-0.02 64.4 56.5----
2024-07-24 04:54 pmWNW 1.9 1.9----29.95- 64.2 56.3----
2024-07-24 04:48 pm W 1.9 2.9----29.95- 64.6 56.7----
2024-07-24 04:42 pm W 1.9 2.9----29.95- 65.1 56.5----
2024-07-24 04:36 pm W 1.9 2.9----29.95- 65.1 56.5----
2024-07-24 04:30 pm W 2.9 2.9----29.95- 65.3 56.3----
2024-07-24 04:24 pmWSW 2.9 2.9----29.95- 66.2 56.5----
2024-07-24 04:18 pmWSW 2.9 2.9----29.96- 66.4 56.5----
2024-07-24 04:12 pm SW 1.9 2.9----29.96- 66.2 56.7----
2024-07-24 04:06 pmWSW 2.9 2.9----29.96- 66.9 56.3----
2024-07-24 04:00 pmWSW 2.9 4.1----29.96-0.02 66.0 56.1----
2024-07-24 03:54 pmWSW 4.1 5.1----29.96- 66.0 56.3----
2024-07-24 03:48 pmWSW 4.1 6.0----29.96-- 56.5----
2024-07-24 03:42 pmWSW 4.1 5.1----29.96- 65.3 56.5----
2024-07-24 03:36 pmWSW 4.1 6.0----29.96- 64.9 56.3----
2024-07-24 03:30 pmWSW 5.1 6.0----29.96- 65.5 55.9----
2024-07-24 03:24 pmWSW 5.1 5.1----29.96- 65.7 56.3----
2024-07-24 03:18 pmWSW 5.1 6.0----29.96- 65.5 56.3----
2024-07-24 03:12 pmWSW 6.0 6.0----29.96- 64.9 56.5----
2024-07-24 03:06 pmWSW 5.1 5.1----29.96- 64.9 56.7----
2024-07-24 03:00 pmWSW 4.1 5.1----29.96-0.02 65.3 56.5----
2024-07-24 02:54 pmWSW 4.1 5.1----29.96- 64.6 56.7----
2024-07-24 02:48 pm W 5.1 5.1----29.96-- 56.7----
2024-07-24 02:42 pm W 5.1 5.1----29.96-- 56.7----
2024-07-24 02:36 pmWSW 4.1 5.1----29.96-- 56.5----
2024-07-24 02:30 pm W 2.9 4.1----29.96- 64.4 56.5----
2024-07-24 02:24 pm W 4.1 4.1----29.96- 64.4 56.3----
2024-07-24 02:18 pm W 4.1 4.1----29.97- 64.9 55.9----
2024-07-24 02:12 pmWSW 2.9 2.9----29.97- 65.7 55.8----
2024-07-24 02:06 pmWSW 2.9 4.1----29.97- 66.2 55.9----
2024-07-24 02:00 pm SW 1.9 4.1----29.97-0.02 66.2 55.9----
2024-07-24 01:54 pmWSW 2.9 4.1----29.97- 65.5 55.8----
2024-07-24 01:48 pmWSW 2.9 4.1----29.97- 64.4 55.9----
2024-07-24 01:42 pmWSW 4.1 4.1----29.97- 64.4 56.1----
2024-07-24 01:36 pmWSW 4.1 5.1----29.97- 64.9 55.9----
2024-07-24 01:30 pmWSW 4.1 5.1----29.98- 65.8 55.9----
2024-07-24 01:24 pm SW 4.1 5.1----29.98- 65.5 55.8----
2024-07-24 01:18 pmWSW 2.9 4.1----29.98- 65.1 55.6----
2024-07-24 01:12 pmWSW 1.9 1.9----29.98- 64.8 55.8----
2024-07-24 01:06 pm W 1.9 2.9----29.98- 64.6 55.6----
2024-07-24 01:00 pm W 2.9 4.1----29.98-0.01 63.7 55.6----
2024-07-24 12:54 pm W 2.9 2.9----29.98- 63.7 56.1----
2024-07-24 12:48 pm W 2.9 2.9----29.98-- 56.1----
2024-07-24 12:42 pm W 1.9 1.9----29.98-- 55.8----
2024-07-24 12:36 pmWSW 1.9 1.9----29.98-- 55.9----
2024-07-24 12:30 pmWSW 1.0 1.9----29.98- 64.9 56.1----
2024-07-24 12:24 pmWSW 1.9 2.9----29.98- 65.1 55.8----
2024-07-24 12:18 pmWSW 2.9 2.9----29.98- 64.9 56.3----
2024-07-24 12:12 pmWSW 1.9 2.9----29.98- 64.6 56.3----
2024-07-24 12:06 pmWSW 1.9 2.9----29.98- 64.6 56.1----
2024-07-24 12:00 pmWSW 1.9 1.9----29.98-0.01 63.9 55.8----
2024-07-24 11:54 am SW 1.9 2.9----29.98- 64.6 55.8----
2024-07-24 11:48 am SW 1.9 2.9----29.98-- 55.6----
2024-07-24 11:42 amWSW 1.9 2.9----29.98- 63.1 55.6----
2024-07-24 11:36 amWSW 1.9 2.9----29.99- 62.6 55.6----
2024-07-24 11:30 am W 1.9 1.9----29.99- 62.1 55.9----
2024-07-24 11:24 amWSW 1.9 1.9----29.99- 62.6 56.3----
2024-07-24 11:18 am W 1.0 1.9----29.99- 63.0 56.1----
2024-07-24 11:12 am SW 1.9 1.9----29.99- 64.4 56.1----
2024-07-24 11:06 amWSW 1.0 1.9----29.99- 63.1 56.1----
2024-07-24 11:00 am SW 1.9 1.9----29.99+0.00 63.5 56.1----
2024-07-24 10:54 am SW 1.0 1.9----29.99- 63.5 55.9----
2024-07-24 10:48 am SW 1.9 1.9----29.99-- 56.1----
2024-07-24 10:42 am SW 1.0 1.9----29.99- 64.2 56.1----
2024-07-24 10:36 am SW 1.9 1.9----30.00- 64.2 56.1----
2024-07-24 10:30 am- 0.0 1.0----29.99- 64.8 56.1----
2024-07-24 10:24 am- 0.0 1.0----30.00- 64.8 56.1----
2024-07-24 10:18 am- 0.0 1.9----30.00- 65.8 56.1----
2024-07-24 10:12 am- 0.0 1.9----29.99- 64.0 56.1----
2024-07-24 10:06 am- 0.0 1.9----29.99- 63.9 56.1----
2024-07-24 10:00 amSSE 1.0 1.9----29.99-0.01 63.5 56.1----
2024-07-24 09:54 am- 0.0 1.9----29.99- 63.3 56.3----
2024-07-24 09:48 am- 0.0 2.9----29.99- 63.7 56.1----
2024-07-24 09:42 am S 1.0 2.9----29.99- 62.4 56.3----
2024-07-24 09:36 amSSW 1.0 1.9----29.99- 62.4 56.3----
2024-07-24 09:30 am- 0.0 1.9----29.99- 62.2 56.3----
2024-07-24 09:24 amSSW 1.0 1.9----29.99- 62.4 56.3----
2024-07-24 09:18 am- 0.0 1.0----29.99- 63.3 56.5----
2024-07-24 09:12 amSSW 1.9 2.9----29.99- 61.9 56.7----
2024-07-24 09:06 amSSW 1.0 1.9----29.99- 62.2 56.7----
2024-07-24 09:00 am SW 1.0 1.0----29.99-0.02 62.8 56.7----
2024-07-24 08:54 am- 0.0 1.0----29.99- 63.0 56.7----
2024-07-24 08:48 am- 0.0 1.0----29.99-- 56.7----
2024-07-24 08:42 am- 0.0 1.0----29.99-- 56.7----
2024-07-24 08:36 am- 0.0 1.0----29.99-- 56.7----
2024-07-24 08:30 am- 0.0 1.0----29.99- 62.4 56.5----
2024-07-24 08:24 am N 1.0 1.0----29.99- 62.1 56.5----
2024-07-24 08:18 amNNE 1.0 1.9----29.99-- 56.3----
2024-07-24 08:12 am NE 1.9 1.9----29.99- 61.7 56.3----
2024-07-24 08:06 amENE 1.0 1.9----30.00- 60.8 55.9----
2024-07-24 08:00 am- 0.0 1.0----30.00-0.03 59.4 57.0----
2024-07-24 07:54 am NE 1.0 1.9----30.00- 58.8 57.0----
2024-07-24 07:48 amENE 1.0 1.9----30.00-- 56.7----
2024-07-24 07:42 amENE 1.9 1.9----30.00-- 56.8----
2024-07-24 07:36 amENE 1.9 2.9----30.00-- 56.8----
2024-07-24 07:30 am NE 2.9 2.9----30.00- 56.1 56.7----
2024-07-24 07:24 am NE 1.9 1.9----30.00- 56.1 56.5----
2024-07-24 07:18 am NE 1.9 4.1----30.00- 57.0 56.5----
2024-07-24 07:12 am NE 1.9 2.9----30.00- 57.0 56.5----
2024-07-24 07:06 am- 0.0 2.9----30.00- 57.7 56.5----
2024-07-24 07:00 am N 1.9 1.9----30.00-0.03 56.8 56.7----
2024-07-24 06:54 amNNW 1.0 1.9----30.01- 57.4 56.7----
2024-07-24 06:48 amNNE 1.0 1.9----30.01- 56.8 56.7----
2024-07-24 06:42 am- 0.0 1.9----30.01- 57.7 56.5----
2024-07-24 06:36 am- 0.0 2.9----30.01- 57.0 56.7----
2024-07-24 06:30 am NE 2.9 2.9----30.01- 55.8 56.7----
2024-07-24 06:24 am NE 2.9 2.9----30.01- 55.2 56.7----
2024-07-24 06:18 amNNE 2.9 2.9----30.01- 55.0 56.7----
2024-07-24 06:12 amNNE 1.9 1.9----30.01- 54.5 56.7----
2024-07-24 06:06 am- 0.0 1.9----30.01- 55.4 56.7----
2024-07-24 06:00 am N 2.9 2.9----30.01-0.02 54.9 56.7----
2024-07-24 05:54 am N 1.9 1.9----30.01- 55.8 56.7----
2024-07-24 05:48 am NE 1.0 1.9----30.02-- 56.7----
2024-07-24 05:42 amENE 1.9 1.9----30.02-- 56.7----
2024-07-24 05:36 amENE 1.9 1.9----30.02-- 56.7----
2024-07-24 05:30 am NE 1.0 1.9----30.02- 54.9 56.7----
2024-07-24 05:24 am NE 1.9 1.9----30.02- 54.9 56.8----
2024-07-24 05:18 am NE 2.9 2.9----30.02- 54.7 56.8----
2024-07-24 05:12 am NE 2.9 4.1----30.02- 54.5 56.8----
2024-07-24 05:06 am NE 4.1 5.1----30.03- 54.3 56.7----
2024-07-24 05:00 am NE 4.1 5.1----30.03-0.01 54.1 56.8----
2024-07-24 04:54 am NE 2.9 2.9----30.03- 54.3 56.8----
2024-07-24 04:48 am NE 2.9 2.9----30.03- 54.7 56.8----
2024-07-24 04:42 am NE 1.9 2.9----30.03- 54.3 56.8----
2024-07-24 04:36 am- 0.0 1.0----30.03- 54.5 56.8----
2024-07-24 04:30 am- 0.0 1.9----30.03- 55.2 56.8----
2024-07-24 04:24 am- 0.0 1.9----30.03- 55.4 56.8----
2024-07-24 04:18 am- 0.0 1.9----30.03- 55.2 56.8----
2024-07-24 04:12 am N 1.0 2.9----30.03- 55.4 56.8----
2024-07-24 04:06 amNNE 1.9 2.9----30.04- 54.7 56.8----
2024-07-24 04:00 am NE 2.9 2.9----30.03+0.00 54.3 56.8----
2024-07-24 03:54 am NE 1.9 2.9----30.03- 54.7 56.8----